Live-Position
3D-Globus wird geladen...
Über Starlink 6077
Group: 3 satellites
Beschreibung wird geladen...
Nächste Überflüge
Passes for default location (London). Set your location on the main map for personalized predictions.
Höhenverlauf
Loading altitude history...
No altitude history available
Zweizeiliger Elementsatz
1 56097U 23046E 26121.91668981 -.00007190 00000-0 -26521-3 0 9990
2 56097 42.9999 173.6670 0001464 273.5863 173.7943 15.25917270 5840
Epoch: 1. Mai 2026 •
Age: 8 hours
Aktueller Status
Höhe 488.6 km
Geschwindigkeit 7.62 km/s
Subsatellitenpunkt 24.89°N,
10.53°E
Startdatum 29. März 2023
Alter 3 years
Typ internet
Startgruppe
Falcon 9 •
Group 5-10 •
48 satellites
Starlink 6109
56094
Starlink 6090 56095
Starlink 6089 56096
Starlink 6088 56098
Starlink 6076 56100
Starlink 6095 56101
Starlink 6075 56102
Starlink 6096 56103
Starlink 6062 56104
Starlink 6066 56105
Starlink 6030 56107
Starlink 6081 56108
Starlink 6083 56109
Starlink 6082 56110
Starlink 6084 56111
Starlink 6080 56112
Starlink 6113 56113
Starlink 6101 56115
Starlink 6114 56116
Starlink 6107 56117
...and 27 more
Technische Details
Klassifizierung Payload
Masse 305.00 kg
Trockenmasse 290.00 kg
Gesamtmasse 305.00 kg
Länge 0.20 m
Durchmesser 2.80 m
Spannweite 9.00 m
Form Box + pan
Hersteller SPXS
Bus-Typ Starlink
Phasenstatus In Orbit
Besitzer/Staat SPXS/US
Most Searched
Loading...